Regional Weather Roundup
Issued by NWS

Home | Current Version | Previous Version | Graphics & Text | Print | Product List | Glossary On
Versions: 1 2 3 4 5 6 7 8 9 10 11 12 13 14 15 16 17 18 19 20 21 22 23 24 25 26 27 28 29 30 31 32 33 34 35 36 37 38 39 40 41 42 43 44 45 46 47 48 49 50
000
ASUS43 KLSX 241007
RWRMO

WEATHER SUMMARY FOR MISSOURI
NATIONAL WEATHER SERVICE SPRINGFIELD MO
500 AM CDT THU APR 24 2014

NOTE: "FAIR" INDICATES FEW OR NO CLOUDS BELOW 12,000 FEET WITH NO
       SIGNIFICANT WEATHER AND/OR OBSTRUCTIONS TO VISIBILITY.
       CURRENT SKY AND/OR WEATHER CONDITIONS ARE NOT AVAILABLE FOR
       CHILLICOTHE AND FARMINGTON.

MOZ001>031-035>038-043-044-053-054-241100-
...NORTHERN AND WESTERN MISSOURI...

CITY           SKY/WX    TMP DP  RH WIND       PRES   REMARKS
KANSAS CTY INT CLOUDY    66  49  54 S9        29.67F
KANSAS C DTWN  CLOUDY    67  49  52 SW9       29.68R
LEE`S SUMMIT   CLOUDY    66  45  46 SW13G25   29.65R
ST JOSEPH      CLOUDY    65  53  65 S13       29.63F
CHILLICOTHE      N/A     62  41  46 SE10G21   29.67F
KIRKSVILLE     MOCLDY    54  37  52 SE16      29.73F

$$
MOZ066>068-077>081-088>096-101>105-241100-
...SOUTHWEST MISSOURI...

CITY           SKY/WX    TMP DP  RH WIND       PRES   REMARKS
SPRINGFIELD    CLOUDY    61  41  47 SE25G36   29.72F
JOPLIN         CLOUDY    67  49  52 S16G22    29.68R

$$
MOZ032>034-039>042-045>050-055>058-069>072-241100-
...CENTRAL MISSOURI...

CITY           SKY/WX    TMP DP  RH WIND       PRES   REMARKS
COLUMBIA       MOCLDY    57  37  47 SE16      29.78F
JEFFERSON CITY PTCLDY    59  37  44 SE14      29.79F
ROLLA          PTCLDY    56  34  43 SE14      29.81F
SEDALIA        CLOUDY    63  39  41 S20G26    29.72F
WHITEMAN AFB   CLOUDY    63  36  36 S20G30    29.67F
OSAGE BEACH    PTCLDY    59  36  41 SE9G17    29.79F

$$
MOZ051-052-059>065-241100-
...EAST CENTRAL MISSOURI...

CITY           SKY/WX    TMP DP  RH WIND       PRES   REMARKS
ST LOUIS INTL  MOCLDY    55  33  43 SE8       29.90R
SPIRIT OF STL  PTCLDY    54  32  43 CALM      29.87S
ST CHARLES     PTCLDY    48  35  60 E8        29.88S

$$
MOZ072>076-082>087-097>100-106>115-241100-
...SOUTH CENTRAL AND SOUTHEAST MISSOURI...

CITY           SKY/WX    TMP DP  RH WIND       PRES   REMARKS
CAPE GIRARDEAU MOCLDY    53  37  54 SE12      29.91F
FARMINGTON     MOCLDY    52  34  50 S6        29.92R
POPLAR BLUFF   CLOUDY    49  41  74 CALM      29.90S
WEST PLAINS    CLOUDY    54  37  52 SE6       29.87F

$$



USA.gov is the U.S. government's official web portal to all federal, state and local government web resources and services.